DW9313 Weather Reports


time (UTC)temp
C
wind
direction
speed
KPH
gust
KPH
rain 1hr
cm
rain 24hr
cm
rain mn
cm
humidity
%
barometer
mb
20260903202812 16 286 1.6 4.8 0.36 0.36 0.36 95 1009.6
20260903202320 16 287 1.6 4.8 0.30 0.30 0.30 95 1009.7
20260903201811 16 271 0.0 1.6 0.23 0.23 0.23 95 1010.0
20260903201309 16 304 0.0 3.2 0.20 0.20 0.20 95 1010.0
20260903200811 16 286 1.6 3.2 0.15 0.15 0.15 95 1010.1
20260903200309 16 282 0.0 0.0 0.13 0.13 0.13 94 1010.2
20260903195810 16 309 0.0 1.6 0.08 0.08 0.08 94 1010.3
20260903195310 16 271 0.0 1.6 0.05 0.05 0.05 94 1010.4
20260903194810 16 291 1.6 3.2 0.05 0.05 0.05 93 1010.4
20260903194309 16 298 0.0 1.6 0.05 0.05 0.05 92 1010.3
20260903193809 16 191 0.0 4.8 0.03 0.03 0.03 92 1010.4
20260903193310 16 301 1.6 9.7 0.03 0.03 0.03 91 1010.4
20260903192811 17 280 1.6 4.8 0.03 0.03 0.03 90 1010.6
20260903192309 17 308 1.6 9.7 0.00 0.00 0.00 89 1010.8
20260903191809 17 293 1.6 9.7 0.00 0.00 0.00 88 1010.7
20260903191310 17 308 4.8 11.3 0.00 0.00 0.00 88 1010.7
20260903190810 17 308 3.2 9.7 0.00 0.00 0.00 89 1010.7
20260903190310 17 302 3.2 9.7 0.00 0.00 0.00 90 1010.8
20260903185809 17 275 1.6 11.3 0.00 0.00 0.00 90 1011.0
20260903185310 17 307 3.2 11.3 0.00 0.00 0.00 90 1011.2
20260903184810 17 302 4.8 16.1 0.00 0.00 0.00 90 1011.5
20260903184311 17 298 6.4 12.9 0.00 0.00 0.00 90 1011.6
20260903183810 17 303 4.8 11.3 0.00 0.00 0.00 90 1011.6
20260903183309 17 291 3.2 11.3 0.00 0.00 0.00 89 1011.6
20260903181810 17 315 4.8 12.9 0.00 0.00 0.00 89 1011.8
20260903181310 17 287 4.8 12.9 0.00 0.00 0.00 88 1011.9
20260903180810 17 306 3.2 9.7 0.00 0.00 0.00 89 1011.9
20260903180310 17 301 4.8 12.9 0.00 0.00 0.00 89 1011.9
20260903175810 17 306 4.8 11.3 0.00 0.00 0.00 89 1011.9
20260903175311 17 288 8.0 14.5 0.00 0.00 0.00 89 1012.0
20260903174812 17 303 6.4 20.9 0.00 0.00 0.00 89 1012.2
20260903174310 17 287 8.0 16.1 0.00 0.00 0.00 88 1012.2
20260903173810 17 290 4.8 14.5 0.00 0.00 0.00 88 1012.3
20260903173312 17 303 4.8 12.9 0.00 0.00 0.00 88 1012.1
20260903172811 17 299 6.4 22.5 0.00 0.00 0.00 89 1012.1
20260903172311 17 295 9.7 19.3 0.00 0.00 0.00 89 1012.5
20260903171812 17 311 6.4 19.3 0.00 0.00 0.00 89 1012.4
20260903171312 17 295 8.0 16.1 0.00 0.00 0.00 89 1012.2
20260903165813 18 308 8.0 22.5 0.00 0.00 0.00 88 1012.2
20260903164312 18 299 9.7 24.1 0.00 0.00 0.00 88 1012.3
20260903163810 18 308 9.7 19.3 0.00 0.00 0.00 88 1012.4
20260903163311 18 304 9.7 22.5 0.00 0.00 0.00 88 1012.4
20260903162811 18 305 6.4 19.3 0.00 0.00 0.00 88 1012.2
20260903162310 18 307 6.4 20.9 0.00 0.00 0.00 87 1012.2
20260903161311 18 288 8.0 19.3 0.00 0.00 0.00 86 1012.4
20260903160811 18 302 3.2 12.9 0.00 0.00 0.00 86 1012.4
20260903160311 18 310 8.0 19.3 0.00 0.00 0.00 85 1012.7
20260903155811 19 293 9.7 16.1 0.00 0.00 0.00 84 1012.7
20260903155311 19 305 6.4 19.3 0.00 0.00 0.00 85 1012.9
20260903154313 20 285 8.0 22.5 0.00 0.00 0.00 84 1012.8
20260903153812 20 259 9.7 19.3 0.00 0.00 0.00 84 1013.0
20260903153311 20 302 8.0 16.1 0.00 0.00 0.00 83 1012.9
20260903152812 20 312 6.4 16.1 0.00 0.00 0.00 83 1012.8
20260903151311 20 325 4.8 19.3 0.00 0.00 0.00 82 1013.0
20260903150812 21 304 9.7 20.9 0.00 0.00 0.00 82 1013.0
20260903150312 21 304 8.0 19.3 0.00 0.00 0.00 82 1013.1
20260903145812 20 293 6.4 16.1 0.00 0.00 0.00 83 1013.1
20260903145311 20 299 6.4 12.9 0.00 0.00 0.00 83 1013.2
20260903144812 20 306 3.2 14.5 0.00 0.00 0.00 83 1013.2
20260903144313 20 310 9.7 19.3 0.00 0.00 0.00 84 1013.2
20260903143812 20 293 9.7 16.1 0.00 0.00 0.00 84 1013.4
20260903142812 20 312 6.4 19.3 0.00 0.00 0.00 85 1013.3
20260903142313 20 303 9.7 24.1 0.00 0.00 0.00 84 1013.5
20260903141813 20 312 8.0 16.1 0.00 0.00 0.00 84 1013.7
20260903141312 20 297 11.3 24.1 0.00 0.00 0.00 83 1013.5
20260903140811 20 321 9.7 20.9 0.00 0.00 0.00 81 1013.3
20260903140313 21 294 8.0 19.3 0.00 0.00 0.00 82 1013.2
20260903135812 20 295 6.4 14.5 0.00 0.00 0.00 84 1013.4
20260903135314 20 302 9.7 20.9 0.00 0.00 0.00 84 1013.7
20260903134812 20 307 11.3 20.9 0.00 0.00 0.00 84 1013.7
20260903134312 20 278 4.8 9.7 0.00 0.00 0.00 85 1013.4
20260903133813 20 298 9.7 22.5 0.00 0.00 0.00 85 1013.4
20260903133313 20 309 8.0 20.9 0.00 0.00 0.00 85 1013.5
20260903132312 20 297 11.3 22.5 0.00 0.00 0.00 84 1013.7
20260903131813 20 300 9.7 19.3 0.00 0.00 0.00 84 1013.6
20260903131314 20 296 9.7 19.3 0.00 0.00 0.00 84 1013.6
20260903130813 20 291 8.0 22.5 0.00 0.00 0.00 85 1013.4
20260903130313 20 323 8.0 19.3 0.00 0.00 0.00 85 1013.3
20260903125814 20 316 9.7 19.3 0.00 0.00 0.00 85 1013.4
20260903125312 20 283 8.0 19.3 0.00 0.00 0.00 85 1013.4
20260903124813 20 280 6.4 20.9 0.00 0.00 0.00 86 1013.5
20260903124315 20 312 8.0 12.9 0.00 0.00 0.00 86 1013.5
20260903123812 20 297 4.8 14.5 0.00 0.00 0.00 86 1013.7
20260903123313 20 301 9.7 19.3 0.00 0.00 0.00 85 1013.8
20260903122815 20 284 8.0 19.3 0.00 0.00 0.00 84 1013.8
20260903122313 20 303 4.8 19.3 0.00 0.00 0.00 84 1013.9
20260903121813 20 282 4.8 12.9 0.00 0.00 0.00 84 1013.7
20260903120815 20 277 4.8 12.9 0.00 0.00 0.00 86 1013.8
20260903120314 20 303 8.0 19.3 0.00 0.00 0.00 87 1013.7
20260903115313 20 300 8.0 14.5 0.00 0.00 0.00 88 1014.1
20260903114813 20 305 9.7 16.1 0.00 0.00 0.00 87 1014.1
20260903113813 20 326 4.8 12.9 0.00 0.00 0.00 88 1014.2
20260903113314 19 322 6.4 12.9 0.00 0.00 0.00 88 1014.0
20260903112813 20 294 4.8 14.5 0.00 0.00 0.00 88 1014.2
20260903111813 19 292 4.8 12.9 0.00 0.00 0.00 88 1014.3
20260903111314 20 286 6.4 19.3 0.00 0.00 0.00 87 1014.3
20260903110813 20 295 8.0 14.5 0.00 0.00 0.00 87 1014.4
20260903110314 20 288 9.7 19.3 0.00 0.00 0.00 87 1014.2
20260903105814 19 283 6.4 11.3 0.00 0.00 0.00 88 1014.2
20260903105314 19 300 4.8 9.7 0.00 0.00 0.00 88 1014.2
20260903104814 19 313 4.8 11.3 0.00 0.00 0.00 88 1014.2
20260903104315 19 301 4.8 12.9 0.00 0.00 0.00 88 1014.1
20260903103816 19 277 6.4 11.3 0.00 0.00 0.00 87 1014.3
20260903103315 20 302 3.2 9.7 0.00 0.00 0.00 87 1014.0
20260903102814 20 307 3.2 9.7 0.00 0.00 0.00 86 1013.9
20260903102314 20 305 3.2 11.3 0.00 0.00 0.00 85 1013.9
20260903101314 20 181 0.0 8.0 0.00 0.00 0.00 85 1014.0
20260903100814 20 296 3.2 8.0 0.00 0.00 0.00 84 1014.1
20260903100314 20 310 1.6 8.0 0.00 0.00 0.00 84 1014.1
20260903095813 20 297 3.2 9.7 0.00 0.00 0.00 83 1014.2
20260903094814 20 338 3.2 12.9 0.00 0.00 0.00 85 1014.3
20260903094314 20 284 4.8 9.7 0.00 0.00 0.00 84 1014.2
20260903093314 20 288 3.2 9.7 0.00 0.00 0.00 88 1014.3
20260903092815 19 296 4.8 12.9 0.00 0.00 0.00 88 1014.6
20260903091315 18 301 4.8 11.3 0.00 0.00 0.00 90 1014.5
20260903090814 18 315 4.8 11.3 0.00 0.00 0.00 90 1014.7
20260903090315 18 297 6.4 14.5 0.00 0.00 0.00 90 1014.6
20260903085816 18 293 4.8 14.5 0.00 0.00 0.00 90 1014.5
20260903085315 18 317 4.8 11.3 0.00 0.00 0.00 90 1014.7
20260903084814 18 311 3.2 11.3 0.00 0.00 0.00 90 1014.7
20260903084314 18 295 6.4 11.3 0.00 0.00 0.00 90 1014.8
20260903083815 18 299 4.8 9.7 0.00 0.00 0.00 91 1014.7
20260903083315 17 325 3.2 9.7 0.00 0.00 0.00 91 1014.6
20260903082815 17 307 4.8 8.0 0.00 0.00 0.00 92 1014.6
20260903082314 17 298 3.2 9.7 0.00 0.00 0.00 92 1014.6
20260903081315 17 313 3.2 11.3 0.00 0.00 0.00 92 1014.6
20260903080816 17 308 3.2 9.7 0.00 0.00 0.00 92 1014.6
20260903080316 17 304 3.2 9.7 0.00 0.00 0.00 92 1014.7
20260903075815 17 299 4.8 11.3 0.00 0.00 0.00 92 1014.7
20260903075315 17 316 3.2 9.7 0.00 0.00 0.00 93 1014.6
20260903074815 17 300 3.2 9.7 0.00 0.00 0.00 93 1014.5
20260903073815 17 267 1.6 9.7 0.00 0.00 0.00 93 1014.6
20260903073316 17 302 4.8 11.3 0.00 0.00 0.00 93 1014.5
20260903072815 17 296 3.2 9.7 0.00 0.00 0.00 93 1014.6
20260903072315 17 295 3.2 8.0 0.00 0.00 0.00 93 1014.7
20260903071815 16 303 1.6 9.7 0.00 0.00 0.00 93 1014.6
20260903071317 16 304 1.6 9.7 0.00 0.00 0.00 93 1014.5
20260903070316 16 292 3.2 9.7 0.00 0.00 0.00 94 1014.3
20260903065816 16 294 3.2 9.7 0.00 0.00 0.00 94 1014.3
20260903065317 16 304 1.6 9.7 0.00 0.00 0.00 95 1014.3
20260903064815 16 298 1.6 9.7 0.00 0.00 0.00 95 1014.3
20260903064316 16 323 3.2 9.7 0.00 0.00 0.00 95 1014.4
20260903063816 16 304 0.0 3.2 0.00 0.00 0.00 95 1014.3
20260903063315 16 325 1.6 4.8 0.00 0.00 0.00 95 1014.3
20260903062816 15 300 1.6 8.0 0.00 0.00 0.00 95 1014.4
20260903062317 15 286 3.2 9.7 0.00 0.00 0.00 95 1014.4
20260903061315 15 285 1.6 4.8 0.00 0.00 0.00 94 1014.3
20260903060816 15 295 3.2 8.0 0.00 0.00 0.00 94 1014.3
20260903060316 15 289 1.6 8.0 0.00 0.03 0.00 94 1014.3
20260903054816 15 316 1.6 3.2 0.00 0.05 0.00 94 1014.1
20260903054316 16 310 1.6 8.0 0.00 0.05 0.00 94 1014.1
20260903053816 16 311 1.6 4.8 0.00 0.05 0.00 94 1013.9
20260903053318 16 292 1.6 4.8 0.00 0.05 0.00 94 1013.8
20260903052816 16 319 1.6 8.0 0.00 0.08 0.00 94 1013.8
20260903052316 16 290 1.6 8.0 0.00 0.10 0.00 94 1013.7
20260903051817 16 304 0.0 8.0 0.00 0.13 0.00 94 1013.7
20260903051317 16 308 1.6 8.0 0.00 0.15 0.00 94 1013.7
20260903050816 15 298 0.0 8.0 0.00 0.15 0.00 94 1013.7
20260903045317 15 330 0.0 1.6 0.00 0.25 0.00 93 1013.5
20260903044816 15 257 0.0 1.6 0.00 0.30 0.00 93 1013.6
20260903044317 16 287 0.0 1.6 0.00 0.33 0.00 93 1013.7
20260903043816 16 355 0.0 1.6 0.00 0.36 0.00 93 1013.8
20260903043317 16 304 1.6 4.8 0.00 0.38 0.00 93 1013.9
20260903042317 16 299 1.6 8.0 0.00 0.41 0.00 93 1013.8
20260903041817 16 280 1.6 9.7 0.00 0.43 0.00 93 1013.8
20260903040817 16 292 3.2 11.3 0.00 0.46 0.00 93 1013.9
20260903040318 16 286 1.6 8.0 0.00 0.46 0.00 93 1013.9
20260903035818 16 281 4.8 9.7 0.00 0.48 0.00 93 1014.0
20260903035318 16 286 0.0 8.0 0.00 0.51 0.00 93 1013.9
20260903034817 16 275 3.2 9.7 0.00 0.53 0.00 93 1014.0
20260903034318 16 295 1.6 8.0 0.00 0.53 0.00 93 1014.0
20260903033818 16 316 3.2 8.0 0.00 0.56 0.00 93 1013.9
20260903033318 16 304 4.8 9.7 0.00 0.58 0.00 93 1013.8
20260903032817 16 305 3.2 9.7 0.00 0.61 0.00 93 1013.8
20260903032319 16 301 3.2 9.7 0.00 0.61 0.00 93 1013.9
20260903031317 16 305 1.6 4.8 0.00 0.61 0.00 93 1013.7
20260903030317 16 303 1.6 8.0 0.00 0.69 0.00 93 1013.7
20260903025818 16 309 3.2 9.7 0.00 0.71 0.00 93 1013.6
20260903025318 16 299 3.2 9.7 0.00 0.71 0.00 93 1013.6
20260903024818 16 300 1.6 9.7 0.00 0.71 0.00 93 1013.5
20260903024317 16 302 0.0 4.8 0.00 0.79 0.00 93 1013.5
20260903023818 16 299 0.0 3.2 0.00 0.79 0.00 92 1013.6
20260903023317 16 296 0.0 4.8 0.00 0.79 0.00 92 1013.6
20260903022818 16 291 1.6 4.8 0.00 0.79 0.00 92 1013.5
20260903022317 16 297 1.6 3.2 0.00 0.81 0.00 91 1013.5
20260903021319 16 306 0.0 1.6 0.00 0.84 0.00 91 1013.6
20260903020818 16 304 0.0 8.0 0.00 0.86 0.00 91 1013.6
20260903020318 16 297 1.6 4.8 0.00 0.89 0.00 92 1013.5
20260903015818 16 292 0.0 1.6 0.00 0.89 0.00 92 1013.4
20260903015317 16 292 1.6 9.7 0.00 0.91 0.00 92 1013.5
20260903014820 16 305 0.0 1.6 0.00 0.91 0.00 92 1013.4
20260903014318 16 257 0.0 1.6 0.00 0.91 0.00 92 1013.5
20260903013818 16 298 0.0 1.6 0.00 0.91 0.00 92 1013.5
20260903013319 16 303 1.6 4.8 0.00 0.94 0.00 92 1013.6
20260903012819 16 300 1.6 4.8 0.00 0.94 0.00 92 1013.6
20260903012320 16 287 1.6 4.8 0.00 0.94 0.00 92 1013.6
20260903011818 16 310 1.6 8.0 0.00 0.97 0.00 92 1013.7
20260903011319 16 310 3.2 9.7 0.00 0.97 0.00 92 1013.7
20260903010818 16 292 4.8 12.9 0.00 0.99 0.00 92 1013.8
20260903005819 16 297 1.6 8.0 0.00 0.99 0.00 93 1013.5
20260903005318 16 298 1.6 4.8 0.00 0.99 0.00 93 1013.4
20260903004820 16 289 0.0 8.0 0.00 1.02 0.00 93 1013.4
20260903004318 16 292 0.0 4.8 0.00 1.02 0.00 93 1013.4
20260903003820 16 255 0.0 4.8 0.00 1.04 0.00 93 1013.4
20260903003318 17 320 0.0 3.2 0.00 1.07 0.00 93 1013.3
20260903002319 17 264 0.0 3.2 0.00 1.09 0.00 93 1013.4
20260903001820 17 284 3.2 9.7 0.00 1.09 0.00 93 1013.3
20260903001319 17 282 3.2 9.7 0.00 1.09 0.00 94 1013.2
20260903000818 17 310 3.2 9.7 0.00 1.12 0.00 94 1013.4
20260903000318 16 301 3.2 8.0 0.00 1.14 0.00 95 1013.4
20260902235820 17 318 1.6 9.7 0.00 1.17 0.00 95 1013.4
20260902235318 17 290 1.6 4.8 0.00 1.17 0.00 96 1013.4
20260902234820 17 301 3.2 9.7 0.00 1.19 0.00 96 1013.3
20260902234319 17 234 0.0 4.8 0.00 1.22 0.00 96 1013.3
20260902233819 17 300 1.6 8.0 0.00 1.22 0.00 96 1013.3
20260902233319 17 281 1.6 4.8 0.00 1.22 0.00 96 1013.3
20260902232819 17 232 0.0 3.2 0.00 1.22 0.00 96 1013.3
20260902232320 16 290 1.6 4.8 0.00 1.22 0.00 96 1013.1
20260902231820 16 325 0.0 3.2 0.00 1.22 0.00 96 1013.2
20260902231319 17 251 0.0 3.2 0.00 1.22 0.00 95 1013.2
20260902230837 17 294 0.0 4.8 0.00 1.22 0.00 95 1013.2
20260902230321 17 319 1.6 8.0 0.00 1.22 0.00 95 1013.1
20260902225319 17 239 0.0 1.6 0.00 1.22 1.22 95 1013.0
20260902224820 17 283 0.0 1.6 0.00 1.22 1.22 95 1013.2
20260902223821 17 217 1.6 4.8 0.00 1.22 1.22 95 1013.2
20260902223320 17 218 1.6 4.8 0.00 1.22 1.22 95 1013.3
20260902221731 17 299 1.6 9.7 0.00 1.22 1.22 95 1013.1
20260902221220 17 291 1.6 9.7 0.00 1.22 1.22 95 1013.1
20260902220731 17 313 3.2 9.7 0.00 1.22 1.22 95 1013.2
20260902220220 17 314 1.6 9.7 0.00 1.22 1.22 95 1012.9
20260902215718 17 9 0.0 8.0 0.00 1.22 1.22 95 1012.9
20260902215219 17 305 3.2 9.7 0.00 1.22 1.22 95 1013.1
20260902214720 17 305 3.2 11.3 0.00 1.22 1.22 95 1013.2
20260902214220 17 306 3.2 9.7 0.00 1.22 1.22 95 1013.1
20260902213719 17 286 3.2 9.7 0.00 1.22 1.22 95 1013.1
20260902213221 17 287 3.2 11.3 0.00 1.22 1.22 95 1013.1
20260902212720 17 296 1.6 9.7 0.00 1.22 1.22 95 1012.8
20260902212219 17 295 3.2 9.7 0.00 1.22 1.22 95 1012.8
20260902211721 17 294 1.6 8.0 0.00 1.22 1.22 95 1012.6
20260902211219 17 289 3.2 14.5 0.00 1.22 1.22 95 1012.5
20260902210719 17 296 3.2 9.7 0.00 1.22 1.22 95 1012.5
20260902210220 17 297 4.8 11.3 0.00 1.22 1.22 96 1012.4
20260902205720 17 303 4.8 11.3 0.00 1.22 1.22 96 1012.5
20260902205219 17 298 1.6 8.0 0.00 1.22 1.22 96 1012.5
20260902204720 17 304 1.6 9.7 0.00 1.22 1.22 96 1012.4
20260902204221 17 272 1.6 9.7 0.00 1.22 1.22 96 1012.3
20260902203721 17 306 1.6 9.7 0.00 1.22 1.22 96 1012.3
20260902203219 17 314 4.8 11.3 0.00 1.22 1.22 96 1012.4